[[{"header":{"parameterUnit":"m.s-1","parameterCategory":1,"la1":30.2991,"la2":30.254,"lo1":-89.0895,"lo2":-89.0444,"dy":0.0017,"dx":0.0017,"nx":28,"ny":28,"refTime":"2023-10-19T09:00:00:Z","depth":0,"parameterNumber":2,"parameterNumberName":"U-component_of_WINDS"},"data":[0,0,0,0,0,0,0,0,0,0,0,0,0,0,0,0,0,0,0,0,0,0,0,0,0,0,0,0,0,0,0,0,0,0,0,0,0,0,0,0,0,0,0,0,0,0,0,0,0,0,0,0,0,0,0,0,0,0,3.5973,3.5974,0,3.6087,3.6088,3.6089,3.6042,3.6039,3.6037,3.6034,3.6153,3.6159,3.6164,0,0,0,0,0,0,0,0,0,0,0,0,0,3.5717,3.5722,3.5973,3.5974,3.5976,3.6087,3.6088,3.609,3.6043,3.6039,3.6036,3.6033,3.6151,3.6158,3.6165,0,0,0,0,0,0,0,0,0,0,0,0,0,3.5829,3.5723,3.5973,3.5966,3.5966,3.6086,3.6088,3.609,3.6043,3.6039,3.6035,3.6031,3.6149,3.6157,3.6166,3.63,0,0,3.6192,3.6196,0,0,0,0,0,0,0,0,3.5823,3.5839,3.5965,3.5966,3.5967,3.6046,3.6041,3.6161,3.6044,3.6014,3.6034,3.6029,3.6121,3.6131,3.6162,3.6306,3.6311,3.6193,3.6198,3.6201,3.6204,0,0,0,0,0,0,0,3.5815,3.5833,3.6018,3.5967,3.5968,3.5957,3.5969,3.6064,3.6089,3.6016,3.6013,3.6027,3.6121,3.6154,3.6164,3.6313,3.6192,3.62,3.6205,3.6209,3.6573,3.6577,0,0,0,0,0,0,3.5807,3.5827,3.6014,3.6021,3.5883,3.5965,3.5978,3.6025,3.6088,3.6094,3.6031,3.6025,3.6141,3.6154,3.6168,3.633,3.6201,3.6209,3.6214,3.6568,3.6574,3.6579,0,0,0,0,0,0,3.5802,3.5824,3.601,3.5924,3.5946,3.5974,3.6027,3.6029,3.6062,3.6099,3.6103,3.606,3.6138,3.6156,3.6268,3.6333,3.6213,3.6221,3.6563,3.657,3.6576,3.6654,0,0,0,0,0,0,3.5794,3.5822,3.5873,3.5925,3.5951,3.6107,3.6031,3.6034,3.6077,3.607,3.6127,3.6133,3.6137,3.6255,3.6276,3.6343,3.6228,3.6557,3.6566,3.6574,3.6646,3.6663,3.6677,0,0,0,0,0,3.5785,3.5891,3.5876,3.5899,3.6015,3.6111,3.6126,3.6127,3.6082,3.6134,3.6157,3.6131,3.6323,3.6267,3.629,3.636,3.6553,3.6564,3.6574,3.6639,3.6659,3.6677,0,0,0,0,0,0,3.5848,3.5898,3.5882,3.6007,3.6055,3.6102,3.6168,3.6149,3.6211,3.6203,3.6203,3.6216,3.6331,3.6357,3.6294,3.6494,3.6431,3.6447,3.6473,3.6493,3.6508,3.6499,3.6235,0,0,0,0,0,3.5876,3.5948,3.5989,3.6096,3.612,3.614,3.6182,3.6179,3.6229,3.6249,3.628,3.633,3.6401,3.6449,3.6516,3.6649,3.6661,3.6709,3.6725,3.6738,3.6751,3.6823,3.6845,3.6612,3.6612,3.6612,0,0,3.5935,3.5971,3.6017,3.6109,3.6146,3.6221,3.6157,3.624,3.6296,3.6262,3.6368,3.6393,3.6449,3.6572,3.6627,3.6597,3.6818,3.6751,3.6761,3.6767,3.6836,3.6857,3.6877,3.6619,3.6618,3.6617,0,0,3.6081,3.6116,3.6209,3.6247,3.6302,3.6315,3.6337,3.6388,3.6403,3.651,3.6485,3.6552,3.6676,3.6716,3.6753,3.6915,3.6892,3.6937,3.7019,3.7089,3.7107,3.7123,3.7181,3.7201,3.695,3.695,3.695,0,3.6148,3.626,3.6259,3.6344,3.6385,3.6356,3.645,3.6487,3.6563,3.6592,3.6557,3.671,3.6746,3.6877,3.6917,3.6948,3.6974,3.693,3.7104,3.7121,3.7136,3.719,3.7212,3.6955,3.6955,3.6954,3.6954,0,3.6339,3.6417,3.6485,3.6558,3.6607,3.6696,3.6709,3.6759,3.6752,3.6768,3.6878,3.692,3.6995,3.7026,3.7021,3.7157,3.7137,3.7103,3.704,3.7163,3.7214,3.7235,3.6962,3.696,3.6959,3.6958,0,0,3.6527,3.6598,3.6623,3.6655,3.6715,3.6776,3.6864,3.6937,3.6979,3.7033,3.7106,3.7211,3.7181,3.7222,3.7221,3.7283,3.7408,3.7242,3.7243,3.7271,3.7561,3.7585,3.7609,3.7394,3.7398,3.7401,3.7556,0,3.6677,3.683,3.6832,3.6973,3.7045,3.7019,3.7095,3.7141,3.7159,3.7223,3.7243,3.7317,3.7271,3.7296,3.7356,3.738,3.7466,3.7369,3.7463,3.7466,3.7449,3.7636,3.7662,3.7806,3.7576,3.7579,3.7582,0,3.6872,3.6931,3.7079,3.7127,3.7158,3.7227,3.7293,3.7355,3.7406,3.7415,3.7462,3.7452,3.7542,3.7476,3.7601,3.7535,3.7573,3.7591,3.7597,3.7605,3.7531,3.7649,3.7852,3.7873,3.7614,3.7611,3.7609,0,3.6993,3.711,3.7213,3.7242,3.7301,3.735,3.7378,3.7424,3.7468,3.7527,3.7556,3.7625,3.7663,3.7717,3.7726,3.7677,3.7851,3.7786,3.7861,3.7861,3.7898,3.7895,3.8109,3.7924,3.7924,3.7924,3.7923,0,3.716,3.7252,3.7268,3.7331,3.7433,3.7435,3.7536,3.7559,3.7602,3.767,3.7652,3.7717,3.7725,3.7792,3.7799,3.7901,3.7919,3.7928,3.7929,3.793,3.7928,3.7954,3.7944,3.7929,3.7928,3.7927,3.7926,0,3.7312,3.7327,3.7438,3.7485,3.7499,3.7572,3.7613,3.7674,3.769,3.7777,3.7797,3.7823,3.7901,3.7915,3.8007,3.8012,3.8134,3.8125,3.8116,3.8115,3.8188,3.8181,3.8426,3.8458,3.8253,3.8255,3.8256,0,3.7417,3.7487,3.7542,3.7585,3.7615,3.7686,3.773,3.7735,3.7782,3.7846,3.7899,3.7975,3.8036,3.8162,3.8189,3.826,3.8252,3.8333,3.8262,3.826,3.8252,3.8248,3.8255,3.8346,3.8348,3.835,3.8352,0,3.7602,3.7606,3.7669,3.7737,3.779,3.7843,3.7894,3.7931,3.7943,3.7997,3.8075,3.8123,3.8216,3.8292,3.8362,3.8391,3.8374,3.8374,3.8395,3.8395,3.8387,3.8392,3.8152,3.8368,3.8366,3.8365,3.8364,3.8364,3.7733,3.7793,3.7841,3.7913,3.7952,3.7999,3.8059,3.8082,3.8148,3.8223,3.8223,3.8309,3.8359,3.8451,3.8485,3.8553,3.8527,3.8558,3.8565,3.8573,3.8579,3.8377,3.8566,3.8566,3.8565,3.8565,3.8565,0,3.7916,3.7945,3.8011,3.8082,3.8139,3.8117,3.8172,3.8221,3.8297,3.8345,3.8405,3.8496,3.8569,3.8602,3.8675,3.8723,3.8717,3.8742,3.8738,3.8745,3.8599,3.8573,3.8745,3.8745,3.8745,3.8745,3.8745,3.8745,3.8017,3.8118,3.8128,3.8248,3.8277,3.836,3.8394,3.8438,3.8475,3.8577,3.8638,3.8659,3.8701,3.8776,3.8843,3.8851,3.8878,3.8906,3.8911,3.8773,3.8755,3.8737,3.8713,3.8912,3.8913,3.9051,3.9052,3.9053]},{"header":{"parameterUnit":"m.s-1","parameterCategory":1,"la1":30.2991,"la2":30.254,"lo1":-89.0895,"lo2":-89.0444,"dy":0.0017,"dx":0.0017,"nx":28,"ny":28,"refTime":"2023-10-19T09:00:00:Z","depth":0,"parameterNumber":3,"parameterNumberName":"V-component_of_WINDS"},"data":[0,0,0,0,0,0,0,0,0,0,0,0,0,0,0,0,0,0,0,0,0,0,0,0,0,0,0,0,0,0,0,0,0,0,0,0,0,0,0,0,0,0,0,0,0,0,0,0,0,0,0,0,0,0,0,0,0,0,1.8754,1.8754,0,1.8781,1.8781,1.8782,1.8758,1.8757,1.8756,1.8756,1.8782,1.8784,1.8785,0,0,0,0,0,0,0,0,0,0,0,0,0,1.868,1.8681,1.8754,1.8754,1.8755,1.8781,1.8781,1.8782,1.8759,1.8757,1.8756,1.8755,1.8782,1.8783,1.8785,0,0,0,0,0,0,0,0,0,0,0,0,0,1.871,1.8682,1.8754,1.8746,1.8746,1.8781,1.8781,1.8782,1.8759,1.8757,1.8756,1.8755,1.8781,1.8783,1.8786,1.8829,0,0,1.8793,1.8794,0,0,0,0,0,0,0,0,1.8708,1.8713,1.8747,1.8747,1.8746,1.8765,1.8765,1.8798,1.8759,1.8754,1.8755,1.8754,1.8777,1.878,1.8788,1.8831,1.8832,1.8793,1.8795,1.8796,1.8796,0,0,0,0,0,0,0,1.8706,1.8711,1.8765,1.8747,1.8747,1.8741,1.8743,1.8771,1.8773,1.8754,1.8753,1.8756,1.8777,1.8786,1.8789,1.8832,1.8793,1.8795,1.8797,1.8798,1.8911,1.8912,0,0,0,0,0,0,1.8705,1.871,1.8764,1.8765,1.8723,1.8743,1.8746,1.876,1.8773,1.8774,1.8757,1.8755,1.8783,1.8786,1.879,1.8841,1.8796,1.8798,1.8799,1.8909,1.8911,1.8913,0,0,0,0,0,0,1.8704,1.871,1.8763,1.8737,1.8743,1.8746,1.8762,1.8762,1.8771,1.8775,1.8776,1.8766,1.8782,1.8786,1.882,1.8842,1.8799,1.8801,1.8907,1.891,1.8912,1.8945,0,0,0,0,0,0,1.8701,1.871,1.8727,1.8738,1.8745,1.8793,1.8763,1.8763,1.8775,1.8772,1.8784,1.8784,1.8781,1.8816,1.8822,1.8844,1.8803,1.8905,1.8908,1.8911,1.8942,1.8948,1.8954,0,0,0,0,0,1.8699,1.8735,1.8728,1.8735,1.8767,1.8794,1.8798,1.8794,1.8777,1.8794,1.8797,1.8784,1.8838,1.882,1.8826,1.885,1.8904,1.8908,1.8911,1.8939,1.8947,1.8954,0,0,0,0,0,0,1.8727,1.8736,1.8729,1.8769,1.8781,1.879,1.8812,1.8802,1.8819,1.8815,1.8808,1.8811,1.8846,1.8851,1.883,1.8892,1.8868,1.8873,1.8888,1.8895,1.8901,1.8899,1.8805,0,0,0,0,0,1.8738,1.876,1.8767,1.8802,1.8809,1.8809,1.8821,1.8817,1.8828,1.8833,1.8838,1.885,1.8869,1.8882,1.8901,1.8942,1.8944,1.8962,1.8967,1.8972,1.8977,1.8998,1.9006,1.8924,1.8924,1.8924,0,0,1.876,1.8768,1.8783,1.8808,1.8817,1.8839,1.8814,1.8839,1.8855,1.8837,1.8869,1.8873,1.8885,1.8923,1.8939,1.8928,1.8999,1.8977,1.898,1.8982,1.9003,1.901,1.9017,1.8927,1.8926,1.8926,0,0,1.8813,1.8822,1.8852,1.8861,1.8874,1.8874,1.8881,1.8892,1.8894,1.8926,1.8912,1.8931,1.8965,1.8975,1.8984,1.9039,1.9028,1.9045,1.9075,1.9097,1.9103,1.9109,1.9128,1.9135,1.9049,1.9049,1.9049,0,1.884,1.8874,1.8868,1.8895,1.8906,1.889,1.892,1.8929,1.8947,1.8955,1.8942,1.8983,1.8991,1.903,1.9043,1.9051,1.9059,1.9044,1.9103,1.9108,1.9113,1.9132,1.9139,1.9051,1.9051,1.9051,1.9051,0,1.8905,1.8929,1.8952,1.897,1.8984,1.9012,1.901,1.9024,1.9018,1.9019,1.9051,1.9059,1.9078,1.9087,1.9082,1.9125,1.9118,1.9104,1.908,1.9123,1.914,1.9147,1.9054,1.9054,1.9053,1.9052,0,0,1.8977,1.8992,1.9,1.9008,1.9021,1.9039,1.9066,1.9085,1.9097,1.911,1.9132,1.916,1.9147,1.9157,1.9153,1.9171,1.9214,1.9155,1.9155,1.9165,1.9262,1.9272,1.9281,1.9206,1.9208,1.9209,1.9261,0,1.903,1.9077,1.9073,1.9117,1.9139,1.9124,1.9147,1.9157,1.9158,1.9176,1.9177,1.9198,1.9179,1.9185,1.9203,1.9205,1.9233,1.9201,1.9226,1.9227,1.9224,1.929,1.9301,1.935,1.9267,1.9269,1.9269,0,1.9099,1.9115,1.9161,1.917,1.9179,1.92,1.9217,1.9234,1.9245,1.9245,1.9256,1.9248,1.9273,1.9249,1.9284,1.9262,1.9272,1.9274,1.9276,1.9278,1.9251,1.9294,1.9366,1.9373,1.928,1.9279,1.9278,0,1.9146,1.9179,1.9211,1.9218,1.923,1.9245,1.925,1.9259,1.9271,1.9285,1.9293,1.931,1.9319,1.9332,1.9328,1.9311,1.9364,1.9339,1.9364,1.9364,1.9376,1.9375,1.9451,1.9382,1.9382,1.9382,1.9382,0,1.9206,1.9235,1.9232,1.9252,1.9283,1.9278,1.9309,1.9312,1.9321,1.934,1.9328,1.9346,1.934,1.9358,1.9355,1.9384,1.9388,1.9388,1.9387,1.939,1.939,1.9396,1.9392,1.9384,1.9384,1.9383,1.9383,0,1.9264,1.9264,1.9297,1.9306,1.9308,1.9331,1.9338,1.9356,1.9356,1.9381,1.9386,1.9387,1.9407,1.9404,1.9427,1.9424,1.9461,1.9456,1.9458,1.9456,1.9481,1.9479,1.9563,1.9574,1.9499,1.95,1.95,0,1.9303,1.9325,1.9335,1.9348,1.9354,1.9374,1.9386,1.9381,1.9393,1.9407,1.9423,1.9442,1.9457,1.949,1.9492,1.9509,1.9504,1.9532,1.9506,1.9508,1.9504,1.9503,1.9504,1.9537,1.9538,1.9539,1.9539,0,1.9371,1.9369,1.9387,1.9404,1.9418,1.9432,1.9444,1.9454,1.945,1.9464,1.9485,1.9497,1.952,1.9539,1.9555,1.9559,1.9549,1.9547,1.9554,1.9557,1.9557,1.9557,1.9471,1.9546,1.9545,1.9544,1.9544,1.9544,1.942,1.9439,1.9449,1.9468,1.9477,1.9488,1.9506,1.9508,1.9525,1.9544,1.9539,1.9563,1.9572,1.9592,1.9598,1.9616,1.9605,1.9615,1.9617,1.962,1.9623,1.9554,1.9619,1.9619,1.9618,1.9618,1.9618,0,1.9487,1.9493,1.9511,1.9528,1.9543,1.9532,1.9545,1.9558,1.9579,1.9589,1.9604,1.9627,1.9645,1.9648,1.9665,1.9679,1.9674,1.9683,1.9682,1.9684,1.9631,1.9624,1.9687,1.9687,1.9687,1.9687,1.9687,1.9687,1.9524,1.9554,1.9554,1.9588,1.9593,1.9616,1.9624,1.9635,1.9642,1.9669,1.9684,1.9686,1.9693,1.971,1.9726,1.9727,1.9733,1.9745,1.9743,1.9694,1.9687,1.9681,1.9674,1.9746,1.9746,1.9794,1.9794,1.9794]}]]